Regional Weather Roundup
Issued by NWS

Home | Current Version | Previous Version | Text Only | Print | Product List | Glossary Off
Versions: 1 2 3 4 5 6 7 8 9 10 11 12 13 14 15 16 17 18 19 20 21 22 23 24 25 26 27 28 29 30 31 32 33 34 35 36 37 38 39 40 41 42 43 44 45 46 47 48 49 50

000
ASUS43 KLOT 240209
RWRIL

ILLINOIS REGIONAL WEATHER ROUNDUP
NATIONAL WEATHER SERVICE CHICAGO/ROMEOVILLE IL
900 PM CDT SUN JUL 23 2017

NOTE: "FAIR" INDICATES FEW OR NO CLOUDS BELOW 12,000 FEET WITH NO
SIGNIFICANT WEATHER AND/OR OBSTRUCTIONS TO VISIBILITY.

* THESE STATIONS ARE NOT UNDER NWS QUALITY CONTROL. THEY ALSO MAY NOT
  REPORT WEATHER SUCH AS PRECIPITATION OR FOG.

ILZ001-002-007-009-015-016-024-240300-
NORTHWEST ILLINOIS

CITY           SKY/WX    TMP DP  RH WIND       PRES   REMARKS
MOLINE         CLEAR     77  62  59 NW8       29.87R
STERLING*      PTCLDY    76  65  68 NW9       29.86R
SAVANNA*       CLEAR     74  63  69 N5        29.87R
$$

ILZ003-004-008-010-011-017-018-240300-
NORTH CENTRAL ILLINOIS

CITY           SKY/WX    TMP DP  RH WIND       PRES   REMARKS
ROCKFORD       PTCLDY    75  69  81 NW6       29.86R
FREEPORT*      CLEAR     71  63  76 NW6       29.89R
ROCHELLE*      PTCLDY    72  69  92 CALM      29.86R
DE KALB*       CLEAR     70  69  96 NW6       29.86R
PERU*          CLEAR    N/A N/A N/A N3        29.85S
$$

ILZ005-006-012>014-019>023-240300-
NORTHEAST ILLINOIS

CITY           SKY/WX    TMP DP  RH WIND       PRES   REMARKS
CHICAGO-OHARE  PTCLDY    70  64  81 W5        29.82S
CHICAGO-MIDWAY PTCLDY    73  64  73 NW8       29.82S
AURORA         CLEAR     69  67  93 CALM      29.84S
LANSING*       CLEAR     75  61  62 CALM      29.82R
JOLIET*        CLEAR     70  67  90 N5        29.83S
WAUKEGAN       PTCLDY    71  69  93 CALM      29.84R
DUPAGE AIRPORT CLEAR     68  68 100 W3        29.83S
WHEELING       CLEAR     72  68  87 CALM      29.84R
MORRIS*        CLEAR     69  66  90 CALM      29.82R
ROMEOVILLE*    PTCLDY    68  64  86 N6        29.84R
NORTHERLY ISL    N/A     76  61  59 W6          N/A
$$

LMZ740>746-240300-
SOUTHERN LAKE MICHIGAN

STATION/POSITION SKY/WX   TEMP    WIND        PRES    VSBY  WAVE
                          AIR SEA DIR/SP/G                  HT/PER
                          (F)     (DEG/KT/KT) (MB)    (MI)  (FT/S)
SOUTHERN BUOY              72 71   20/ 10/ 12 1009.2          0
WILMETTE HARBOR            73 74  280/  6/  8   N/A           1
HARRISON CRIB              76     290/  7/  8   N/A
BURNHAM HARBOR             75                   N/A
CALUMET HARBOR             75     320/  2/  3 1009.4S
BURNS HARBOR               76     340/  7/  9 1010.2S
MICHIGAN CITY              74      10/ 11/ 11   N/A
MICHIGAN CITY 6N           75 75   10/  8/ 10   N/A           1/ 2
ST. JOSEPH                 74 75   40/  8/ 10 1009.3          1/ 2
$$

ILZ025>027-034>036-040-047-049-050-058-095>099-240300-
WEST-CENTRAL ILLINOIS

CITY           SKY/WX    TMP DP  RH WIND       PRES   REMARKS
QUINCY         CLOUDY    80  65  59 N10       29.87R HX  82
GALESBURG*     CLEAR     73  63  72 NW7       29.89R
MACOMB*        CLEAR     75  64  67 N9        29.88S
JACKSONVILLE*  CLOUDY    76  68  77 CALM      29.86R
PITTSFIELD*    CLOUDY    77  71  81 NW5       29.88R
$$

ILZ028>032-037-038-041>044-048-051>054-059>061-240300-
CENTRAL ILLINOIS

CITY           SKY/WX    TMP DP  RH WIND       PRES   REMARKS
PONTIAC        CLEAR     72  71  97 CALM      29.84S
DECATUR        PTCLDY    74  71  91 SW8       29.83R
PEORIA         CLEAR     78  65  63 N6        29.85R HX  80
LACON*         PTCLDY    74  69  84 CALM      29.84R
LINCOLN*       PTCLDY    81  70  69 CALM      29.85R HX  84
SPRINGFIELD    CLOUDY    76  73  91 NW6       29.85R
TAYLORVILLE    PTCLDY    74  73  96 W5        29.85R
$$

ILZ033-039-045-046-055>057-062-063-240300-
EAST-CENTRAL ILLINOIS

CITY           SKY/WX    TMP DP  RH WIND       PRES   REMARKS
CHAMPAIGN      TSTM      78  68  71 NW18G25   29.84R HX  80
RANTOUL*       CLOUDY    74  70  87 E8        29.85R
MATTOON        CLOUDY    80  77  90 SW6       29.83R HX  87
PARIS*         PTCLDY    75  74  98 CALM      29.85R
$$

ILZ079-100>102-240300-
SOUTHWEST ILLINOIS

CITY           SKY/WX    TMP DP  RH WIND       PRES   REMARKS
ALTON          PTCLDY    77  73  88 W7        29.85R
BELLEVILLE     CLEAR     78  73  84 CALM      29.85S HX  81
CAHOKIA*       PTCLDY    83  63  50 W3        29.84S HX  84
SPARTA*        CLOUDY    79  68  69 CALM      29.86F HX  81
$$

ILZ064>066-069>071-074>076-080>082-084>086-088>090-092>094-240300-
SOUTH-CENTRAL ILLINOIS

CITY           SKY/WX    TMP DP  RH WIND       PRES   REMARKS
CARBONDALE     PTCLDY    76  76 100 CALM      29.85S
CAIRO*         CLEAR     79  74  86 CALM      29.85R HX  82
EFFINGHAM*     CLOUDY    79  75  89 CALM      29.86R HX  82
MARION         PTCLDY    77  77 100 CALM      29.86F
MT. VERNON     CLEAR     77  72  84 CALM      29.86R
CENTRALIA*     CLEAR     77  74  91 CALM      29.85R
SALEM*         CLEAR     77  72  83 CALM      29.85S
METROPOLIS*    CLEAR     80  75  86 CALM      29.87R HX  84
$$

ILZ067-068-072-073-078-083-087-091-240300-
SOUTHEAST ILLINOIS

CITY           SKY/WX    TMP DP  RH WIND       PRES   REMARKS
LAWRENCEVILLE  CLEAR     77  74  90 CALM      29.85R
FLORA*         CLEAR     78  73  83 W5        29.86R HX  80
FAIRFIELD*     CLEAR     74  72  95 CALM      29.85R
HARRISBURG*    CLEAR     77  74  91 CALM      29.86S
ROBINSON*      CLEAR     74  73  94 SW5       29.85R
CARMI*         CLEAR     74  73  96 CALM      29.85R
$$

ABBREVIATIONS USED IN REMARKS
   TC - TEMPERATURE IN CELSIUS
  WCI - WIND CHILL INDEX
   HX - HEAT INDEX
  VSB - VISIBILITY
$$





USA.gov is the U.S. government's official web portal to all federal, state and local government web resources and services.